User: anonymous   Login
Location: Deuil
(48.9767°N, 2.3272°E)
Time: 11:28:09
(UTC+00:00)
Language:

Cosmos 1697 Rocket - Orbit

View from above orbital plane
View from above orbital plane
View from above satellite
View from above satellite

Ground track
Ground track

The orbit data is extracted from the following two-line orbital elements,

1 16182U 85097B   22018.18278174 -.00000249  00000-0 -10157-3 0  9992
2 16182  71.0032  81.7191 0006278  22.5663  40.9787 14.16265802873511
Epoch (UTC): 18 January 2022 04:23:12
Eccentricity: 0.0006278
inclination: 71.0032°
perigee height: 833 km
apogee height: 842 km
right ascension of ascending node: 81.7191°
argument of perigee: 22.5663°
revolutions per day: 14.16265802
mean anomaly at epoch: 40.9787°
orbit number at epoch: 87351

The dashed part of the orbit path shows where the satellite is in the earth's shadow,  

DLR